NORTHEAST SUFFOLK  -  Winter Weather Advisory Winter Weather Advisory        NORTHERN NASSAU  -  Winter Weather Advisory Winter Weather Advisory        NORTHWEST SUFFOLK  -  Winter Weather Advisory Winter Weather Advisory        SOUTHEAST SUFFOLK  -  Winter Weather Advisory Winter Weather Advisory        SOUTHERN NASSAU  -  Winter Weather Advisory Winter Weather Advisory        SOUTHWEST SUFFOLK  -  Winter Weather Advisory Winter Weather Advisory      

Active alerts

Northern Nassau
  Details for Northern Nassau Winter Weather Advisory
Southern Nassau
  Details for Southern Nassau Winter Weather Advisory
Northwest Suffolk
  Details for Northwest Suffolk Winter Weather Advisory
Southwest Suffolk
  Details for Southwest Suffolk Winter Weather Advisory
Northeast Suffolk
  Details for Northeast Suffolk Winter Weather Advisory
Southeast Suffolk
  Details for Southeast Suffolk Winter Weather Advisory


WXM80 ListenWXM80 Stop

You find our weather info also at:

UK Metoffice

WeatherCloud

Weather Underground

Northeastern Weather Network

AWEKAS

Citizen Weather Observer Program (CWOP)

HAMweather, WeatherForYou, PWS Weather


Weather Underground History page Text

Daily Summary for November 12, 2017 Units:  English    Metric   Both
« Previous Day
Next Day »
Daily Weekly Monthly Yearly Custom
  High: Low: Average:
Temperature: 49.4 °F 28.7 °F 37.5 °F
Dew Point: 33.4 °F 24.6 °F 29.7 °F
Humidity: 91 % 51 % 75 %
Wind Speed: 4.3 mph 0.0 mph 0.4 mph
Wind Gust: 8.1 mph - -
Wind:- - West
Pressure: 30.49 in 30.17 in -
Precipitation: 0.00 in    
Historical Graphs
 
 
Tabular Data for November 12, 2017
Time Temperature Dew Point Pressure Wind Wind Speed Wind Gust Humidity Rainfall Rate (Hourly)
00:04 29.9 °F 25.1 °F 30.49 in West 1.6 mph 2.3 mph 82 % 0.00 in
00:09 30.0 °F 25.2 °F 30.49 in West 0.6 mph 3.5 mph 82 % 0.00 in
00:14 30.1 °F 25.3 °F 30.49 in Calm     82 % 0.00 in
00:19 30.2 °F 25.1 °F 30.49 in Calm     81 % 0.00 in
00:24 30.3 °F 25.2 °F 30.48 in Calm     81 % 0.00 in
00:29 30.3 °F 25.2 °F 30.49 in Calm     81 % 0.00 in
00:34 30.3 °F 25.2 °F 30.49 in Calm     81 % 0.00 in
00:39 30.3 °F 25.2 °F 30.49 in Calm     81 % 0.00 in
00:44 30.2 °F 25.1 °F 30.49 in Calm     81 % 0.00 in
00:49 30.2 °F 25.1 °F 30.48 in West 0.1 mph 1.2 mph 81 % 0.00 in
00:54 30.1 °F 25.0 °F 30.48 in Calm     81 % 0.00 in
00:59 29.9 °F 24.8 °F 30.48 in West 0.9 mph 2.3 mph 81 % 0.00 in
01:04 29.8 °F 25.0 °F 30.48 in West 0.4 mph 1.0 mph 82 % 0.00 in
01:10 29.7 °F 24.9 °F 30.48 in Calm     82 % 0.00 in
01:15 29.6 °F 24.8 °F 30.47 in Calm     82 % 0.00 in
01:20 29.6 °F 24.8 °F 30.47 in West 0.2 mph 1.2 mph 82 % 0.00 in
01:25 29.4 °F 24.9 °F 30.47 in Calm     83 % 0.00 in
01:30 29.3 °F 24.8 °F 30.46 in Calm     83 % 0.00 in
01:35 29.3 °F 24.8 °F 30.47 in Calm   1.2 mph 83 % 0.00 in
01:40 29.2 °F 24.7 °F 30.47 in Calm     83 % 0.00 in
01:45 29.1 °F 24.6 °F 30.47 in West 0.3 mph 1.2 mph 83 % 0.00 in
01:50 29.0 °F 24.8 °F 30.48 in West 1.3 mph 2.3 mph 84 % 0.00 in
01:55 28.9 °F 24.7 °F 30.48 in Calm     84 % 0.00 in
02:00 28.9 °F 24.7 °F 30.48 in West 0.6 mph 1.2 mph 84 % 0.00 in
02:05 28.8 °F 24.6 °F 30.48 in Calm     84 % 0.00 in
02:10 28.8 °F 24.6 °F 30.48 in Calm     84 % 0.00 in
02:15 28.8 °F 24.9 °F 30.48 in Calm     85 % 0.00 in
02:20 28.8 °F 24.9 °F 30.48 in Calm     85 % 0.00 in
02:25 28.8 °F 24.9 °F 30.48 in Calm   1.2 mph 85 % 0.00 in
02:30 28.8 °F 24.9 °F 30.48 in Calm     85 % 0.00 in
02:35 28.8 °F 24.9 °F 30.48 in Calm     85 % 0.00 in
02:41 28.7 °F 24.8 °F 30.48 in Calm   1.0 mph 85 % 0.00 in
02:46 28.7 °F 24.8 °F 30.48 in Calm   1.0 mph 85 % 0.00 in
02:51 28.7 °F 24.8 °F 30.48 in Calm     85 % 0.00 in
02:56 28.7 °F 25.0 °F 30.47 in Calm     86 % 0.00 in
03:01 28.7 °F 24.8 °F 30.47 in Calm     85 % 0.00 in
03:06 28.7 °F 24.8 °F 30.47 in Calm     85 % 0.00 in
03:11 28.7 °F 24.8 °F 30.47 in Calm     85 % 0.00 in
03:16 28.7 °F 24.8 °F 30.47 in Calm     85 % 0.00 in
03:21 28.7 °F 25.0 °F 30.47 in Calm     86 % 0.00 in
03:26 28.7 °F 25.0 °F 30.47 in Calm     86 % 0.00 in
03:31 28.7 °F 25.0 °F 30.48 in Calm   1.2 mph 86 % 0.00 in
03:36 28.7 °F 25.0 °F 30.47 in Calm     86 % 0.00 in
03:41 28.7 °F 25.0 °F 30.47 in Calm     86 % 0.00 in
03:46 28.7 °F 25.0 °F 30.48 in Calm     86 % 0.00 in
03:51 28.8 °F 25.4 °F 30.48 in West 0.1 mph   87 % 0.00 in
03:56 28.8 °F 25.4 °F 30.48 in Calm     87 % 0.00 in
04:01 28.8 °F 25.4 °F 30.48 in Calm     87 % 0.00 in
04:06 28.9 °F 25.5 °F 30.47 in Calm     87 % 0.00 in
04:11 28.9 °F 25.5 °F 30.47 in Calm     87 % 0.00 in
04:16 28.9 °F 25.5 °F 30.47 in Calm     87 % 0.00 in
04:21 28.9 °F 25.5 °F 30.48 in Calm     87 % 0.00 in
04:25 29.0 °F 25.6 °F 30.47 in Calm     87 % 0.00 in
04:30 29.0 °F 25.6 °F 30.48 in Calm     87 % 0.00 in
04:35 29.0 °F 25.9 °F 30.47 in Calm     88 % 0.00 in
04:40 29.0 °F 25.9 °F 30.48 in Calm     88 % 0.00 in
04:51 29.1 °F 26.0 °F 30.48 in Calm     88 % 0.00 in
04:56 29.1 °F 26.0 °F 30.48 in Calm   1.0 mph 88 % 0.00 in
05:01 29.2 °F 26.1 °F 30.48 in Calm     88 % 0.00 in
05:06 29.2 °F 26.1 °F 30.48 in West 0.2 mph 1.2 mph 88 % 0.00 in
05:11 29.3 °F 25.9 °F 30.48 in Calm   1.2 mph 87 % 0.00 in
05:16 29.3 °F 25.9 °F 30.48 in West 0.3 mph 1.2 mph 87 % 0.00 in
05:21 29.4 °F 26.0 °F 30.47 in Calm     87 % 0.00 in
05:26 29.5 °F 26.4 °F 30.47 in Calm   2.3 mph 88 % 0.00 in
05:31 29.6 °F 26.5 °F 30.47 in Calm   1.2 mph 88 % 0.00 in
05:36 29.7 °F 26.6 °F 30.47 in Calm     88 % 0.00 in
05:41 29.8 °F 27.0 °F 30.47 in West 0.1 mph 1.2 mph 89 % 0.00 in
05:46 30.0 °F 27.2 °F 30.47 in West 0.6 mph 1.2 mph 89 % 0.00 in
05:51 30.1 °F 27.3 °F 30.47 in West 0.3 mph 2.3 mph 89 % 0.00 in
05:56 30.3 °F 27.7 °F 30.47 in West 0.8 mph 2.3 mph 90 % 0.00 in
06:02 30.5 °F 27.9 °F 30.47 in West 0.1 mph 1.2 mph 90 % 0.00 in
06:04 30.5 °F 27.9 °F 30.48 in Calm   1.2 mph 90 % 0.00 in
06:09 30.6 °F 27.7 °F 30.47 in Calm     89 % 0.00 in
06:14 30.6 °F 27.7 °F 30.47 in Calm     89 % 0.00 in
06:19 30.7 °F 27.8 °F 30.47 in Calm   1.0 mph 89 % 0.00 in
06:24 30.7 °F 27.8 °F 30.48 in West 2.1 mph 3.5 mph 89 % 0.00 in
06:29 30.7 °F 27.8 °F 30.48 in Calm     89 % 0.00 in
06:34 30.7 °F 27.6 °F 30.48 in Calm     88 % 0.00 in
06:39 30.7 °F 27.6 °F 30.48 in Calm     88 % 0.00 in
06:44 30.7 °F 27.6 °F 30.47 in West 0.4 mph 1.2 mph 88 % 0.00 in
06:49 30.7 °F 27.6 °F 30.47 in West 0.9 mph 2.3 mph 88 % 0.00 in
06:54 30.8 °F 27.7 °F 30.47 in Calm     88 % 0.00 in
06:59 30.7 °F 27.6 °F 30.47 in West 0.3 mph 1.2 mph 88 % 0.00 in
07:05 30.7 °F 27.6 °F 30.48 in Calm   1.2 mph 88 % 0.00 in
07:10 30.8 °F 27.4 °F 30.48 in West 1.0 mph 2.3 mph 87 % 0.00 in
07:15 30.8 °F 27.7 °F 30.47 in West 1.2 mph 2.3 mph 88 % 0.00 in
07:20 30.9 °F 27.8 °F 30.48 in Calm   1.2 mph 88 % 0.00 in
07:25 31.0 °F 27.9 °F 30.48 in Calm     88 % 0.00 in
07:30 31.1 °F 28.0 °F 30.48 in Calm     88 % 0.00 in
07:35 31.3 °F 28.2 °F 30.48 in Calm     88 % 0.00 in
07:40 31.4 °F 28.5 °F 30.48 in Calm     89 % 0.00 in
07:45 31.6 °F 28.7 °F 30.48 in Calm     89 % 0.00 in
07:50 31.9 °F 29.3 °F 30.48 in West 1.2 mph 3.5 mph 90 % 0.00 in
07:55 32.2 °F 29.6 °F 30.47 in Calm     90 % 0.00 in
08:00 32.5 °F 30.2 °F 30.48 in Calm     91 % 0.00 in
08:05 32.9 °F 30.6 °F 30.48 in West 0.9 mph 2.3 mph 91 % 0.00 in
08:10 33.3 °F 31.0 °F 30.48 in Calm     91 % 0.00 in
08:15 33.8 °F 31.5 °F 30.48 in Calm   1.2 mph 91 % 0.00 in
08:20 34.2 °F 31.8 °F 30.48 in Calm     91 % 0.00 in
08:25 34.7 °F 32.3 °F 30.48 in Calm     91 % 0.00 in
08:30 35.0 °F 32.4 °F 30.48 in Calm     90 % 0.00 in
08:35 35.5 °F 32.6 °F 30.48 in Calm   1.0 mph 89 % 0.00 in
08:40 35.9 °F 32.1 °F 30.48 in Calm   1.0 mph 86 % 0.00 in
08:45 36.4 °F 31.7 °F 30.48 in Calm   1.0 mph 83 % 0.00 in
08:51 36.8 °F 31.2 °F 30.48 in Calm   2.0 mph 80 % 0.00 in
08:55 37.2 °F 30.7 °F 30.48 in WSW 1.0 mph 2.0 mph 77 % 0.00 in
09:00 37.7 °F 29.5 °F 30.48 in WSW 0.2 mph 2.0 mph 72 % 0.00 in
09:05 38.2 °F 29.3 °F 30.47 in WSW 0.3 mph 2.3 mph 70 % 0.00 in
09:06 38.2 °F 29.3 °F 30.47 in WSW 0.3 mph 2.3 mph 70 % 0.00 in
09:11 38.6 °F 28.9 °F 30.47 in Calm   1.2 mph 68 % 0.00 in
09:16 39.2 °F 28.4 °F 30.47 in NW 0.8 mph 2.3 mph 65 % 0.00 in
09:21 39.7 °F 28.5 °F 30.47 in Calm   2.3 mph 64 % 0.00 in
09:26 40.2 °F 28.2 °F 30.47 in West 1.6 mph 2.3 mph 62 % 0.00 in
09:31 40.7 °F 28.3 °F 30.47 in Calm     61 % 0.00 in
09:36 41.4 °F 30.5 °F 30.46 in Calm     65 % 0.00 in
09:41 42.0 °F 30.3 °F 30.47 in Calm     63 % 0.00 in
09:46 42.4 °F 29.5 °F 30.47 in West 0.3 mph 2.3 mph 60 % 0.00 in
09:51 42.8 °F 29.5 °F 30.47 in WNW 1.9 mph 4.6 mph 59 % 0.00 in
09:56 43.1 °F 29.3 °F 30.47 in WSW 0.7 mph 2.3 mph 58 % 0.00 in
10:01 43.4 °F 29.6 °F 30.47 in WSW 0.2 mph 1.2 mph 58 % 0.00 in
10:06 43.7 °F 29.0 °F 30.47 in WSW 0.3 mph 3.5 mph 56 % 0.00 in
10:11 44.0 °F 29.7 °F 30.47 in SW 0.1 mph 1.2 mph 57 % 0.00 in
10:17 44.2 °F 29.5 °F 30.47 in WSW 0.2 mph 1.2 mph 56 % 0.00 in
10:22 44.5 °F 29.3 °F 30.47 in Calm   2.3 mph 55 % 0.00 in
10:27 44.6 °F 29.9 °F 30.47 in West 0.6 mph 2.3 mph 56 % 0.00 in
10:32 44.8 °F 29.6 °F 30.47 in WNW 0.4 mph 3.5 mph 55 % 0.00 in
10:37 45.0 °F 29.8 °F 30.46 in WNW 1.3 mph 3.5 mph 55 % 0.00 in
10:42 45.2 °F 30.0 °F 30.47 in West 0.1 mph 2.3 mph 55 % 0.00 in
10:47 45.4 °F 30.6 °F 30.46 in Calm     56 % 0.00 in
10:52 45.6 °F 30.3 °F 30.46 in Calm   1.2 mph 55 % 0.00 in
10:57 45.8 °F 30.1 °F 30.46 in WSW 2.5 mph 3.5 mph 54 % 0.00 in
11:02 45.8 °F 30.5 °F 30.46 in Calm     55 % 0.00 in
11:07 45.9 °F 30.2 °F 30.45 in West 0.1 mph 2.3 mph 54 % 0.00 in
11:12 45.9 °F 30.6 °F 30.44 in West 1.9 mph 3.5 mph 55 % 0.00 in
11:17 45.7 °F 30.0 °F 30.45 in West 0.7 mph 3.5 mph 54 % 0.00 in
11:22 45.6 °F 29.9 °F 30.45 in SSE 3.0 mph 3.5 mph 54 % 0.00 in
11:26 45.5 °F 29.3 °F 30.44 in SSE 0.7 mph 2.3 mph 53 % 0.00 in
11:31 45.4 °F 29.7 °F 30.44 in Calm   2.3 mph 54 % 0.00 in
11:36 45.3 °F 30.5 °F 30.44 in WNW 0.9 mph 2.3 mph 56 % 0.00 in
11:41 45.2 °F 30.0 °F 30.43 in WNW 1.4 mph 3.5 mph 55 % 0.00 in
11:46 45.2 °F 30.4 °F 30.43 in WNW 0.6 mph 3.0 mph 56 % 0.00 in
11:51 45.1 °F 30.3 °F 30.43 in WNW 1.5 mph 4.0 mph 56 % 0.00 in
11:56 45.1 °F 30.8 °F 30.43 in WNW 0.5 mph 2.3 mph 57 % 0.00 in
12:01 45.2 °F 30.4 °F 30.43 in SW 0.5 mph 3.5 mph 56 % 0.00 in
12:06 45.2 °F 30.9 °F 30.43 in Calm   2.3 mph 57 % 0.00 in
12:11 45.2 °F 30.9 °F 30.43 in WSW 1.1 mph 5.0 mph 57 % 0.00 in
12:16 45.2 °F 30.9 °F 30.43 in SSW 0.9 mph 3.5 mph 57 % 0.00 in
12:21 45.3 °F 30.5 °F 30.43 in WNW 1.3 mph 3.5 mph 56 % 0.00 in
12:26 45.4 °F 31.0 °F 30.42 in West 1.0 mph 3.0 mph 57 % 0.00 in
12:32 45.4 °F 31.0 °F 30.42 in NNW 2.7 mph 3.5 mph 57 % 0.00 in
12:37 45.4 °F 31.0 °F 30.42 in WNW 1.5 mph 8.1 mph 57 % 0.00 in
12:42 45.4 °F 31.0 °F 30.42 in West 3.0 mph 6.9 mph 57 % 0.00 in
12:47 45.5 °F 31.1 °F 30.42 in WNW 1.8 mph 4.6 mph 57 % 0.00 in
12:52 45.6 °F 31.2 °F 30.42 in NW 2.3 mph 3.5 mph 57 % 0.00 in
12:57 45.8 °F 31.4 °F 30.42 in WNW 0.7 mph 2.3 mph 57 % 0.00 in
13:02 46.0 °F 31.6 °F 30.41 in NW 2.4 mph 4.6 mph 57 % 0.00 in
13:07 46.3 °F 31.4 °F 30.40 in WSW 1.6 mph 3.5 mph 56 % 0.00 in
13:12 46.7 °F 31.8 °F 30.40 in West 3.0 mph 3.5 mph 56 % 0.00 in
13:17 47.2 °F 32.3 °F 30.40 in SW 3.6 mph 5.0 mph 56 % 0.00 in
13:21 47.7 °F 32.3 °F 30.40 in SW 1.1 mph 5.8 mph 55 % 0.00 in
13:26 48.1 °F 31.8 °F 30.40 in WNW 4.3 mph 6.9 mph 53 % 0.00 in
13:31 48.5 °F 32.1 °F 30.39 in SW 1.6 mph 3.5 mph 53 % 0.00 in
13:37 48.7 °F 32.3 °F 30.40 in WNW 1.4 mph 5.0 mph 53 % 0.00 in
13:42 49.0 °F 33.1 °F 30.40 in NNW 0.9 mph 1.2 mph 54 % 0.00 in
13:52 49.3 °F 31.9 °F 30.39 in WNW 2.0 mph 6.9 mph 51 % 0.00 in
13:57 49.4 °F 33.4 °F 30.39 in NNW 1.8 mph 3.0 mph 54 % 0.00 in
14:02 49.2 °F 32.8 °F 30.39 in WNW 2.0 mph 3.5 mph 53 % 0.00 in
14:07 49.1 °F 33.2 °F 30.39 in NNE 1.7 mph 3.5 mph 54 % 0.00 in
14:12 48.8 °F 32.4 °F 30.39 in West 2.1 mph 5.8 mph 53 % 0.00 in
14:17 48.5 °F 33.1 °F 30.39 in NE 2.1 mph 4.6 mph 55 % 0.00 in
14:22 48.2 °F 33.2 °F 30.39 in NNW 1.1 mph 3.5 mph 56 % 0.00 in
14:27 47.8 °F 32.9 °F 30.39 in NE 3.6 mph 4.6 mph 56 % 0.00 in
14:32 47.5 °F 33.0 °F 30.39 in NW 1.9 mph 3.5 mph 57 % 0.00 in
14:37 47.3 °F 32.8 °F 30.39 in NW 1.1 mph 3.5 mph 57 % 0.00 in
14:42 47.1 °F 33.1 °F 30.39 in WNW 0.4 mph 4.0 mph 58 % 0.00 in
14:47 46.9 °F 32.9 °F 30.39 in North 1.2 mph 3.5 mph 58 % 0.00 in
14:52 46.7 °F 33.1 °F 30.39 in NW 1.6 mph 4.6 mph 59 % 0.00 in
14:57 46.5 °F 32.5 °F 30.39 in NNW 0.2 mph 3.5 mph 58 % 0.00 in
15:02 46.4 °F 32.8 °F 30.38 in NNW 1.3 mph 3.0 mph 59 % 0.00 in
15:07 46.3 °F 32.7 °F 30.39 in NNW 1.7 mph 3.5 mph 59 % 0.00 in
15:12 46.2 °F 32.7 °F 30.39 in NW 0.1 mph 2.3 mph 59 % 0.00 in
15:17 46.1 °F 32.6 °F 30.39 in WNW 1.8 mph 3.5 mph 59 % 0.00 in
15:22 46.0 °F 32.5 °F 30.39 in Calm     59 % 0.00 in
15:27 45.9 °F 32.4 °F 30.39 in WNW 0.2 mph 2.3 mph 59 % 0.00 in
15:32 45.8 °F 32.3 °F 30.39 in Calm     59 % 0.00 in
15:37 45.7 °F 32.2 °F 30.39 in Calm     59 % 0.00 in
15:42 45.6 °F 32.1 °F 30.38 in WNW 1.3 mph 3.5 mph 59 % 0.00 in
15:47 45.5 °F 32.4 °F 30.38 in Calm     60 % 0.00 in
15:52 45.4 °F 32.3 °F 30.39 in Calm     60 % 0.00 in
15:57 45.4 °F 32.7 °F 30.38 in SW 0.1 mph 1.2 mph 61 % 0.00 in
16:02 45.3 °F 32.6 °F 30.38 in Calm     61 % 0.00 in
16:07 45.2 °F 32.5 °F 30.38 in Calm     61 % 0.00 in
16:13 45.1 °F 32.8 °F 30.39 in Calm   1.2 mph 62 % 0.00 in
16:18 44.9 °F 32.7 °F 30.39 in West 0.9 mph 5.8 mph 62 % 0.00 in
16:23 44.7 °F 32.5 °F 30.39 in WSW 0.9 mph 3.5 mph 62 % 0.00 in
16:28 44.6 °F 32.4 °F 30.39 in Calm     62 % 0.00 in
16:33 44.5 °F 32.7 °F 30.39 in Calm     63 % 0.00 in
16:38 44.3 °F 32.5 °F 30.39 in SW 0.7 mph 2.3 mph 63 % 0.00 in
16:43 44.2 °F 32.8 °F 30.39 in Calm   2.3 mph 64 % 0.00 in
16:48 44.0 °F 32.6 °F 30.39 in Calm   1.2 mph 64 % 0.00 in
16:53 43.8 °F 32.4 °F 30.39 in Calm     64 % 0.00 in
16:58 43.6 °F 32.6 °F 30.39 in Calm     65 % 0.00 in
17:03 43.3 °F 32.7 °F 30.39 in Calm     66 % 0.00 in
17:08 43.0 °F 32.4 °F 30.39 in Calm     66 % 0.00 in
17:13 42.7 °F 32.5 °F 30.39 in Calm     67 % 0.00 in
17:18 42.5 °F 32.7 °F 30.39 in Calm     68 % 0.00 in
17:23 42.2 °F 32.8 °F 30.39 in Calm     69 % 0.00 in
17:28 41.8 °F 32.4 °F 30.39 in Calm     69 % 0.00 in
17:33 41.5 °F 32.4 °F 30.39 in Calm     70 % 0.00 in
17:38 41.3 °F 32.2 °F 30.40 in Calm     70 % 0.00 in
17:43 40.9 °F 31.9 °F 30.40 in Calm     70 % 0.00 in
17:48 40.6 °F 31.9 °F 30.40 in Calm     71 % 0.00 in
17:53 40.3 °F 32.0 °F 30.39 in Calm     72 % 0.00 in
17:58 40.0 °F 32.0 °F 30.39 in Calm     73 % 0.00 in
18:03 39.8 °F 31.8 °F 30.39 in Calm     73 % 0.00 in
18:08 39.5 °F 31.6 °F 30.39 in Calm     73 % 0.00 in
18:13 39.3 °F 31.7 °F 30.38 in Calm     74 % 0.00 in
18:18 39.0 °F 31.7 °F 30.39 in Calm     75 % 0.00 in
18:24 38.8 °F 31.6 °F 30.39 in Calm     75 % 0.00 in
18:28 38.6 °F 31.7 °F 30.40 in SW 0.6 mph 1.2 mph 76 % 0.00 in
18:34 38.4 °F 31.5 °F 30.39 in SW 0.3 mph 2.3 mph 76 % 0.00 in
18:39 38.2 °F 31.6 °F 30.39 in Calm     77 % 0.00 in
18:44 38.1 °F 31.5 °F 30.39 in SW 0.1 mph 1.2 mph 77 % 0.00 in
18:49 38.0 °F 31.4 °F 30.39 in Calm     77 % 0.00 in
18:54 37.9 °F 31.3 °F 30.39 in Calm   1.2 mph 77 % 0.00 in
18:59 37.8 °F 31.6 °F 30.39 in Calm     78 % 0.00 in
19:04 37.8 °F 31.6 °F 30.39 in Calm     78 % 0.00 in
19:09 37.7 °F 31.8 °F 30.39 in Calm     79 % 0.00 in
19:14 37.7 °F 31.5 °F 30.39 in Calm     78 % 0.00 in
19:19 37.7 °F 31.8 °F 30.39 in Calm     79 % 0.00 in
19:24 37.6 °F 31.7 °F 30.39 in Calm     79 % 0.00 in
19:29 37.6 °F 32.0 °F 30.39 in Calm     80 % 0.00 in
19:34 37.5 °F 31.9 °F 30.38 in Calm     80 % 0.00 in
19:39 37.5 °F 31.9 °F 30.38 in Calm     80 % 0.00 in
19:44 37.5 °F 31.9 °F 30.38 in SW 0.5 mph 2.3 mph 80 % 0.00 in
19:49 37.6 °F 32.0 °F 30.38 in SW 0.1 mph 1.2 mph 80 % 0.00 in
19:54 37.5 °F 31.9 °F 30.38 in Calm     80 % 0.00 in
19:59 37.6 °F 32.3 °F 30.38 in Calm     81 % 0.00 in
20:04 37.6 °F 32.0 °F 30.38 in Calm     80 % 0.00 in
20:09 37.6 °F 32.0 °F 30.38 in SW 0.2 mph 1.2 mph 80 % 0.00 in
20:14 37.6 °F 32.0 °F 30.38 in Calm     80 % 0.00 in
20:19 37.7 °F 32.1 °F 30.39 in Calm     80 % 0.00 in
20:24 37.6 °F 32.0 °F 30.39 in Calm     80 % 0.00 in
20:29 37.6 °F 32.0 °F 30.39 in Calm     80 % 0.00 in
20:34 37.5 °F 31.9 °F 30.39 in SW 0.2 mph 1.2 mph 80 % 0.00 in
20:39 37.5 °F 31.9 °F 30.39 in Calm     80 % 0.00 in
20:44 37.4 °F 31.8 °F 30.39 in Calm     80 % 0.00 in
20:49 37.3 °F 31.7 °F 30.39 in Calm     80 % 0.00 in
20:54 37.2 °F 31.6 °F 30.39 in Calm     80 % 0.00 in
20:59 37.1 °F 31.5 °F 30.39 in Calm     80 % 0.00 in
21:04 36.9 °F 31.3 °F 30.39 in Calm     80 % 0.00 in
21:09 36.8 °F 31.2 °F 30.39 in Calm   1.2 mph 80 % 0.00 in
21:14 36.7 °F 31.4 °F 30.40 in Calm     81 % 0.00 in
21:19 36.6 °F 31.3 °F 30.40 in Calm     81 % 0.00 in
21:24 36.5 °F 31.2 °F 30.39 in SW 0.2 mph 1.0 mph 81 % 0.00 in
21:28 36.4 °F 31.4 °F 30.39 in SW 0.2 mph 1.2 mph 82 % 0.00 in
21:33 36.4 °F 31.4 °F 30.40 in Calm     82 % 0.00 in
21:38 36.3 °F 31.3 °F 30.40 in Calm     82 % 0.00 in
21:43 36.2 °F 31.2 °F 30.41 in Calm     82 % 0.00 in
21:48 36.2 °F 31.5 °F 30.40 in SW 0.1 mph 1.2 mph 83 % 0.00 in
21:53 36.1 °F 31.4 °F 30.40 in Calm     83 % 0.00 in
21:58 36.1 °F 31.4 °F 30.39 in Calm     83 % 0.00 in
22:03 36.1 °F 31.4 °F 30.40 in SW 0.5 mph 1.2 mph 83 % 0.00 in
22:08 36.0 °F 31.3 °F 30.40 in Calm   1.2 mph 83 % 0.00 in
22:14 36.0 °F 31.3 °F 30.40 in Calm   2.3 mph 83 % 0.00 in
22:19 36.0 °F 31.6 °F 30.40 in SW 0.5 mph 1.2 mph 84 % 0.00 in
22:21 36.0 °F 31.6 °F 30.18 in SW 0.2 mph 1.2 mph 84 % 0.00 in
22:24 36.0 °F 31.6 °F 30.17 in Calm     84 % 0.00 in
22:25 36.1 °F 31.7 °F 30.39 in Calm     84 % 0.00 in
22:30 36.1 °F 31.7 °F 30.39 in Calm     84 % 0.00 in
22:35 36.1 °F 31.7 °F 30.39 in Calm     84 % 0.00 in
22:40 36.1 °F 31.7 °F 30.39 in Calm     84 % 0.00 in
22:45 36.2 °F 32.1 °F 30.38 in Calm     85 % 0.00 in
22:50 36.2 °F 32.1 °F 30.38 in Calm     85 % 0.00 in
22:55 36.3 °F 32.2 °F 30.39 in Calm   1.2 mph 85 % 0.00 in
23:00 36.3 °F 32.2 °F 30.39 in Calm     85 % 0.00 in
23:05 36.4 °F 32.3 °F 30.39 in Calm     85 % 0.00 in
23:10 36.5 °F 32.4 °F 30.39 in Calm     85 % 0.00 in
23:15 36.5 °F 32.4 °F 30.38 in Calm     85 % 0.00 in
23:20 36.6 °F 32.2 °F 30.38 in Calm     84 % 0.00 in
23:25 36.7 °F 32.6 °F 30.38 in Calm     85 % 0.00 in
23:30 36.8 °F 32.7 °F 30.38 in Calm     85 % 0.00 in
23:35 36.9 °F 32.8 °F 30.38 in Calm     85 % 0.00 in
23:41 36.9 °F 32.8 °F 30.38 in Calm     85 % 0.00 in
23:46 37.0 °F 32.9 °F 30.37 in Calm     85 % 0.00 in
23:51 37.0 °F 32.9 °F 30.37 in Calm     85 % 0.00 in
23:56 37.1 °F 33.0 °F 30.38 in SW 0.6 mph 1.2 mph 85 % 0.00 in
Crab Meadow Weather
Compliments of Weather Underground - 3 mb

Script developed by  Jim McMurry - jmcmurry@mwt.net Adapted for the template by  Wim van der Kuil - Leuven-Template.eu

Weather Terms: Severe Thunderstorm Watch - Conditions are favorable for the development of severe thunderstorms in and close to the watch area. These watches are issued for large areas by the Storm Prediction Center in Norman, Oklahoma, and are usually valid for four to six hours.